Powrót do katalogu

IRIDIUM 112

AktywnyŁącznośćPO
NORAD 41925·PAYLOAD·🇺🇸 United States

Wystrzelony Jan 14, 2017 z Vandenberg Space Force Base

Loading…

Następne Przeloty (najbliższe 24 godziny)

TLE

ŚwieżeSource: CelesTrak SupGP

Epoka: Sep 14, 2026, 21:44 UTC

1 41925C 17003J   26257.90590278  .00002871  00000+0  10266-2 0  2575
2 41925  86.3945  50.7613 0002179  94.7448 163.6109 14.34216774    11

Śledź IRIDIUM 112 w czasie rzeczywistym z AllMySat

Download on the App Store